Weather History for Phuket, Thailand

Change the Weather History Date:

Sunday, February 24, 2013

  Actual Average Record
Temperature  
Mean Temperature 80 °F -  
Max Temperature 86 °F 92 °F 100 °F (1998)
Min Temperature 74 °F 76 °F 73 °F (1997)
Cooling Degree Days 15    
Growing Degree Days 30 (Base 50)    
Moisture  
Dew Point 73 °F    
Average Humidity 78    
Maximum Humidity 97    
Minimum Humidity 62    
Precipitation  
Precipitation 0.02 in 0.07 in - ()
Sea Level Pressure  
Sea Level Pressure 29.85 in    
Wind  
Wind Speed 2 mph ()    
Max Wind Speed 10 mph    
Max Gust Speed -    
Visibility 3.9 miles    
Events Rain    
Averages and records for this station are not official NWS values.
T = Trace of Precipitation, MM = Missing Value Source: Averaged Metar Reports

Daily Weather History Graph

Daily Weather History Graph

Search for Another Location

Airport:

Trip Planner

Search our weather history database for the weather conditions in past years. The results will help you decide how hot, cold, wet, or windy it might be!

Date:

Astronomy

Feb. 24, 2013 Rise Set
Actual Time 6:42 AM ICT 6:37 PM ICT
Civil Twilight 6:20 AM ICT 6:59 PM ICT
Nautical Twilight 5:56 AM ICT 7:23 PM ICT
Astronomical Twilight 5:31 AM ICT 7:48 PM ICT
Moon 5:22 PM ICT (2/24) 5:11 AM ICT (2/24)
Length of Visible Light 12h 38m
Length of Day
11h 55m
Waxing Gibbous, 97% of the Moon is Illuminated
Feb 24
Waxing Gibbous
Feb 26
Full
Mar 5
Last Quarter
Mar 12
New
Mar 20
First Quarter

Hourly Weather History & Observations

Time (ICT) Temp. Heat Index Dew Point Humidity Pressure Visibility Wind Dir Wind Speed Gust Speed Precip Events Conditions
12:00 AM 77.0 °F - 73.4 °F 89% 29.89 in 4.3 mi Calm Calm - N/A   Mostly Cloudy
12:30 AM 77.0 °F - 73.4 °F 89% 29.86 in 4.3 mi Calm Calm - N/A   Mostly Cloudy
1:00 AM 77 °F - 76 °F 97% 29.84 in 4 mi Calm Calm - -   Mist
1:00 AM 77.0 °F - 73.4 °F 89% 29.86 in 4.3 mi Calm Calm - N/A   Mostly Cloudy
2:00 AM 77.0 °F - 73.4 °F 89% 29.83 in 4.3 mi Calm Calm - N/A   Mostly Cloudy
3:00 AM 77.0 °F - 73.4 °F 89% 29.80 in 4.3 mi Calm Calm - N/A   Mostly Cloudy
4:00 AM 77.0 °F - 73.4 °F 89% 29.80 in 4.3 mi Calm Calm - N/A   Mostly Cloudy
6:00 AM 78.8 °F - 73.4 °F 83% 29.83 in 4.3 mi Calm Calm - N/A   Mostly Cloudy
7:00 AM 77 °F - 75 °F 92% 29.81 in 4 mi Calm Calm - -   Mist
7:00 AM 77.0 °F - 73.4 °F 89% 29.83 in 4.3 mi Calm Calm - N/A   Mostly Cloudy
7:30 AM 78.8 °F - 73.4 °F 83% 29.86 in 4.3 mi Calm Calm - N/A   Mostly Cloudy
8:00 AM 78.8 °F - 73.4 °F 83% 29.86 in 4.3 mi Calm Calm - N/A   Mostly Cloudy
8:30 AM 80.6 °F 86.2 °F 75.2 °F 84% 29.86 in 4.3 mi Calm Calm - N/A   Mostly Cloudy
9:00 AM 80.6 °F 85.4 °F 73.4 °F 79% 29.89 in 3.1 mi East 4.6 mph - N/A   Mostly Cloudy
9:30 AM 82.4 °F 88.2 °F 73.4 °F 74% 29.89 in 3.1 mi ENE 6.9 mph - N/A   Mostly Cloudy
10:00 AM 82.4 °F 88.2 °F 73.4 °F 74% 29.89 in 3.1 mi NE 4.6 mph - N/A   Mostly Cloudy
10:30 AM 82.4 °F 88.2 °F 73.4 °F 74% 29.89 in 3.1 mi ENE 6.9 mph - N/A Rain Light Rain
11:00 AM 84.2 °F 90.9 °F 73.4 °F 70% 29.89 in 3.1 mi ENE 3.5 mph - N/A Rain Light Rain
11:30 AM 84.2 °F 90.9 °F 73.4 °F 70% 29.89 in 3.1 mi East 10.4 mph - N/A Rain Light Rain
12:00 PM 84.2 °F 90.9 °F 73.4 °F 70% 29.86 in 3.7 mi Variable 2.3 mph - N/A   Mostly Cloudy
12:30 PM 86.0 °F 91.8 °F 71.6 °F 62% 29.86 in 3.7 mi North 4.6 mph - N/A   Mostly Cloudy
1:00 PM 86 °F - 75 °F 64% 29.83 in 4 mi Calm Calm - -   Mist
1:00 PM 84.2 °F 90.9 °F 73.4 °F 70% 29.83 in 3.7 mi Calm Calm - N/A   Mostly Cloudy
1:30 PM 84.2 °F 90.9 °F 73.4 °F 70% 29.83 in 4.3 mi Variable 4.6 mph - N/A   Mostly Cloudy
2:00 PM 86.0 °F 91.8 °F 71.6 °F 62% 29.83 in 4.3 mi NNW 4.6 mph - N/A   Mostly Cloudy
2:30 PM 84.2 °F 89.6 °F 71.6 °F 66% 29.80 in 4.3 mi WNW 9.2 mph - N/A   Mostly Cloudy
3:00 PM 84.2 °F 90.9 °F 73.4 °F 70% 29.80 in 4.3 mi WNW 8.1 mph - N/A   Mostly Cloudy
3:30 PM 84.2 °F 89.6 °F 71.6 °F 66% 29.80 in 3.7 mi NW 6.9 mph - N/A   Mostly Cloudy
4:00 PM 84.2 °F 90.9 °F 73.4 °F 70% 29.80 in 3.1 mi WNW 8.1 mph - N/A   Mostly Cloudy
4:30 PM 84.2 °F 90.9 °F 73.4 °F 70% 29.80 in 3.1 mi NW 5.8 mph - N/A   Mostly Cloudy
5:00 PM 82.4 °F 88.2 °F 73.4 °F 74% 29.80 in 3.1 mi NW 8.1 mph - N/A   Mostly Cloudy
5:30 PM 82.4 °F 89.5 °F 75.2 °F 79% 29.80 in 3.1 mi WNW 8.1 mph - N/A Rain Light Rain
6:00 PM 82.4 °F 89.5 °F 75.2 °F 79% 29.80 in 3.1 mi NW 6.9 mph - N/A   Mostly Cloudy
6:30 PM 80.6 °F 85.4 °F 73.4 °F 79% 29.83 in 3.7 mi Variable 3.5 mph - N/A   Mostly Cloudy
7:00 PM 82 °F - 77 °F 81% 29.77 in 4 mi NW 3.5 mph - -   Mist
7:00 PM 82.4 °F 88.2 °F 73.4 °F 74% 29.83 in 4.3 mi NW 3.5 mph - N/A   Mostly Cloudy
7:30 PM 80.6 °F 85.4 °F 73.4 °F 79% 29.86 in 4.3 mi North 4.6 mph - N/A   Mostly Cloudy
8:00 PM 78.8 °F - 75.2 °F 89% 29.86 in 4.3 mi Calm Calm - N/A   Mostly Cloudy
8:30 PM 78.8 °F - 75.2 °F 89% 29.89 in 4.3 mi Calm Calm - N/A   Mostly Cloudy
9:00 PM 82.4 °F 87.2 °F 71.6 °F 70% 29.89 in 4.3 mi ENE 4.6 mph - N/A   Mostly Cloudy
9:30 PM 80.6 °F 84.6 °F 71.6 °F 74% 29.89 in 4.3 mi ENE 3.5 mph - N/A   Mostly Cloudy
10:00 PM 80.6 °F 84.6 °F 71.6 °F 74% 29.89 in 4.3 mi East 4.6 mph - N/A   Mostly Cloudy
10:30 PM 82.4 °F 87.2 °F 71.6 °F 70% 29.92 in 4.3 mi NE 5.8 mph - N/A   Mostly Cloudy
11:00 PM 80.6 °F 84.6 °F 71.6 °F 74% 29.92 in 4.3 mi ENE 3.5 mph - N/A Rain Light Rain
11:30 PM 80.6 °F 85.4 °F 73.4 °F 79% 29.92 in 4.3 mi ENE 5.8 mph - N/A   Mostly Cloudy